Terminal Aerodrome Forecast
Issued by NWS

Home | Current Version | Previous Version | Text Only | Print | Product List | Glossary On
Versions: 1 2 3 4 5 6 7 8 9 10 11 12 13 14 15 16
000
FTUS45 KVEF 260546 AAA
TAFVGT
TAF AMD
KVGT 260546Z 2606/2706 10006KT P6SM FEW090 FEW120 SCT250
     FM261500 13007KT P6SM FEW120
     FM261900 16011KT P6SM FEW120
     FM262300 18012G20KT P6SM SCT120
     FM270400 18009KT P6SM FEW120=

USA.gov is the U.S. government's official web portal to all federal, state and local government web resources and services.